[[{"header":{"parameterUnit":"m.s-1","parameterCategory":1,"la1":30.2991,"la2":30.254,"lo1":-89.0895,"lo2":-89.0444,"dy":0.0017,"dx":0.0017,"nx":28,"ny":28,"refTime":"2024-05-25T03:00:00:Z","depth":0,"parameterNumber":2,"parameterNumberName":"U-component_of_WINDS"},"data":[0,0,0,0,0,0,0,0,0,0,0,0,0,0,0,0,0,0,0,0,0,0,0,0,0,0,0,0,0,0,0,0,0,0,0,0,0,0,0,0,0,0,0,0,0,0,0,0,0,0,0,0,0,0,0,0,0,0,0.0704,0.0703,0,0.0592,0.0591,0.059,0.0522,0.0522,0.0521,0.0521,0.0404,0.0401,0.0398,0,0,0,0,0,0,0,0,0,0,0,0,0,0.0854,0.0851,0.0704,0.0702,0.0701,0.0593,0.0591,0.0589,0.0522,0.0522,0.0521,0.0521,0.0404,0.0401,0.0398,0,0,0,0,0,0,0,0,0,0,0,0,0,0.077,0.085,0.0704,0.0654,0.0649,0.0593,0.0591,0.0589,0.0522,0.0522,0.0521,0.0521,0.0406,0.0401,0.0397,0.0381,0,0,0.0384,0.0382,0,0,0,0,0,0,0,0,0.0775,0.0764,0.0663,0.0658,0.0651,0.0571,0.0601,0.0519,0.0522,0.057,0.0521,0.0521,0.0459,0.0451,0.0431,0.0375,0.037,0.0384,0.0381,0.038,0.0378,0,0,0,0,0,0,0,0.0781,0.0769,0.066,0.0662,0.0655,0.0636,0.0624,0.0585,0.0519,0.0566,0.0561,0.0549,0.0456,0.0435,0.0427,0.0369,0.0384,0.038,0.0378,0.0376,0.0291,0.0292,0,0,0,0,0,0,0.0795,0.0774,0.0663,0.0656,0.0713,0.0634,0.062,0.0597,0.0519,0.0507,0.0549,0.0546,0.0442,0.0432,0.0423,0.0397,0.038,0.0376,0.0373,0.0291,0.0291,0.0292,0,0,0,0,0,0,0.0798,0.0786,0.0668,0.0714,0.0697,0.0632,0.0607,0.0595,0.0574,0.0506,0.0494,0.054,0.0442,0.0429,0.0391,0.0392,0.0374,0.037,0.0291,0.0291,0.0291,0.0346,0,0,0,0,0,0,0.0803,0.0787,0.0782,0.0714,0.0695,0.064,0.0607,0.0593,0.0567,0.0562,0.0495,0.0483,0.044,0.0398,0.0387,0.0386,0.0366,0.029,0.0291,0.0291,0.0344,0.0348,0.0352,0,0,0,0,0,0.0809,0.0801,0.0782,0.0769,0.0687,0.064,0.0629,0.0581,0.0568,0.056,0.0517,0.0485,0.0394,0.0395,0.0382,0.0379,0.029,0.0291,0.0291,0.0342,0.0347,0.0352,0,0,0,0,0,0,0.0869,0.0791,0.0769,0.074,0.0697,0.0629,0.0618,0.0588,0.0548,0.0544,0.0485,0.0471,0.0438,0.0405,0.0408,0.0358,0.0338,0.0336,0.0381,0.0386,0.039,0.0398,0.0363,0,0,0,0,0,0.088,0.085,0.0782,0.0763,0.0743,0.0684,0.0662,0.0629,0.0581,0.0563,0.0516,0.0471,0.0431,0.0407,0.0367,0.0339,0.0322,0.033,0.0334,0.0338,0.0337,0.0317,0.032,0.0294,0.0294,0.0294,0,0,0.09,0.0854,0.0838,0.0774,0.0737,0.0705,0.0669,0.0638,0.0613,0.0557,0.0519,0.0483,0.0428,0.0395,0.0378,0.0366,0.034,0.0339,0.0342,0.0339,0.0318,0.0321,0.0323,0.0294,0.0294,0.0294,0,0,0.0921,0.0884,0.0863,0.0826,0.0771,0.0732,0.0727,0.0662,0.0636,0.0597,0.0555,0.0523,0.0458,0.042,0.0392,0.0397,0.0365,0.0385,0.0406,0.0388,0.039,0.0391,0.0391,0.0392,0.0384,0.0384,0.0384,0,0.0953,0.0905,0.0855,0.0826,0.0798,0.0747,0.0724,0.069,0.0625,0.0606,0.0594,0.0509,0.0468,0.0424,0.0425,0.0405,0.0396,0.0392,0.0394,0.0395,0.0395,0.0395,0.0395,0.0387,0.0387,0.0387,0.0386,0,0.0946,0.0913,0.0902,0.0841,0.0812,0.0786,0.073,0.0707,0.0676,0.0637,0.0597,0.0546,0.0494,0.0482,0.0451,0.0433,0.0427,0.0405,0.0384,0.0401,0.04,0.0399,0.0391,0.039,0.0389,0.0389,0,0,0.1002,0.0913,0.091,0.088,0.0815,0.0788,0.0758,0.0709,0.0688,0.0644,0.0617,0.0562,0.0541,0.0509,0.0473,0.0458,0.0462,0.0437,0.0435,0.0442,0.0437,0.0453,0.0454,0.0441,0.0441,0.0441,0.0441,0,0.1012,0.0959,0.0912,0.0875,0.0843,0.0793,0.0767,0.0723,0.0686,0.0652,0.0611,0.0572,0.0548,0.0529,0.0511,0.0466,0.046,0.0465,0.0413,0.0412,0.0428,0.0453,0.047,0.0472,0.044,0.044,0.044,0,0.1017,0.0975,0.0935,0.0871,0.0856,0.0834,0.0784,0.0752,0.0701,0.0675,0.0639,0.0602,0.0566,0.0549,0.0498,0.0503,0.0479,0.0453,0.0452,0.0444,0.0427,0.0445,0.0472,0.0472,0.0439,0.0439,0.0439,0,0.106,0.0994,0.0961,0.0937,0.0863,0.0848,0.0816,0.0764,0.0736,0.0692,0.0673,0.0625,0.0598,0.0561,0.0511,0.0503,0.0465,0.0444,0.044,0.0442,0.0434,0.0435,0.0457,0.0421,0.0421,0.0421,0.0421,0,0.1075,0.1052,0.0979,0.0959,0.093,0.0877,0.085,0.0813,0.0767,0.0737,0.0691,0.0664,0.06,0.0564,0.0524,0.0487,0.0476,0.0452,0.0442,0.0456,0.0459,0.0439,0.0437,0.0421,0.0421,0.0421,0.0421,0,0.1118,0.1069,0.1029,0.0962,0.0944,0.0926,0.0867,0.0845,0.0805,0.0768,0.0756,0.0693,0.0648,0.0595,0.0533,0.0506,0.0472,0.0457,0.049,0.0483,0.0483,0.0483,0.0491,0.0489,0.0456,0.0457,0.0457,0,0.1131,0.1112,0.1043,0.102,0.0989,0.0953,0.0925,0.0871,0.0843,0.0782,0.0766,0.0718,0.0677,0.0608,0.0556,0.0507,0.049,0.0496,0.0482,0.0496,0.0488,0.0489,0.0486,0.05,0.05,0.0501,0.0501,0,0.1158,0.1134,0.1096,0.1049,0.1017,0.0977,0.0935,0.0918,0.0855,0.0826,0.078,0.0748,0.0685,0.0637,0.0582,0.0547,0.0513,0.0506,0.0502,0.0516,0.0535,0.0523,0.0498,0.0506,0.0505,0.0505,0.0505,0.0505,0.1185,0.1165,0.1113,0.1072,0.1034,0.0996,0.0971,0.0928,0.089,0.0834,0.0804,0.0759,0.0705,0.0628,0.0594,0.0557,0.0545,0.054,0.0538,0.0538,0.0541,0.0542,0.0546,0.0546,0.0546,0.0546,0.0546,0,0.1208,0.1172,0.1135,0.1077,0.1044,0.1017,0.0968,0.0942,0.0903,0.0857,0.0817,0.0764,0.0717,0.0661,0.061,0.059,0.0573,0.0579,0.0579,0.0571,0.0556,0.0563,0.0593,0.0593,0.0593,0.0593,0.0593,0.0593,0.1216,0.1181,0.1151,0.1096,0.1059,0.1015,0.099,0.0953,0.0916,0.0859,0.082,0.0784,0.0733,0.0678,0.0633,0.0618,0.06,0.061,0.059,0.0576,0.0572,0.0568,0.0575,0.0607,0.0607,0.0608,0.0608,0.0608]},{"header":{"parameterUnit":"m.s-1","parameterCategory":1,"la1":30.2991,"la2":30.254,"lo1":-89.0895,"lo2":-89.0444,"dy":0.0017,"dx":0.0017,"nx":28,"ny":28,"refTime":"2024-05-25T03:00:00:Z","depth":0,"parameterNumber":3,"parameterNumberName":"V-component_of_WINDS"},"data":[0,0,0,0,0,0,0,0,0,0,0,0,0,0,0,0,0,0,0,0,0,0,0,0,0,0,0,0,0,0,0,0,0,0,0,0,0,0,0,0,0,0,0,0,0,0,0,0,0,0,0,0,0,0,0,0,0,0,7.8575,7.8576,0,7.8677,7.8679,7.868,7.8618,7.8615,7.8612,7.8609,7.8708,7.8713,7.8718,0,0,0,0,0,0,0,0,0,0,0,0,0,7.8319,7.8324,7.8575,7.8576,7.8578,7.8677,7.8679,7.868,7.8618,7.8615,7.8611,7.8608,7.8706,7.8712,7.8719,0,0,0,0,0,0,0,0,0,0,0,0,0,7.8426,7.8325,7.8575,7.8559,7.8559,7.8677,7.8679,7.868,7.8619,7.8615,7.861,7.8606,7.8704,7.8712,7.872,7.8857,0,0,7.8744,7.8748,0,0,0,0,0,0,0,0,7.842,7.8436,7.856,7.856,7.856,7.8631,7.8624,7.8739,7.862,7.8596,7.8609,7.8604,7.8685,7.8694,7.8723,7.8862,7.8866,7.8745,7.875,7.8753,7.8755,0,0,0,0,0,0,0,7.8413,7.8431,7.8615,7.8562,7.8562,7.8544,7.8555,7.8646,7.8664,7.8598,7.8594,7.8607,7.8684,7.8716,7.8725,7.8867,7.8745,7.8752,7.8757,7.876,7.9121,7.9125,0,0,0,0,0,0,7.8408,7.8425,7.8612,7.8618,7.8478,7.8553,7.8564,7.8612,7.8663,7.8666,7.8611,7.8604,7.8704,7.8716,7.8728,7.8891,7.8753,7.8761,7.8765,7.9116,7.9122,7.9127,0,0,0,0,0,0,7.8402,7.8425,7.8608,7.8521,7.8543,7.8562,7.8616,7.8617,7.8648,7.8672,7.8675,7.864,7.8701,7.8717,7.8825,7.8893,7.8764,7.8771,7.911,7.9118,7.9124,7.9218,0,0,0,0,0,0,7.8395,7.8423,7.8478,7.8523,7.8548,7.8706,7.862,7.8622,7.8663,7.8655,7.87,7.8704,7.8699,7.8814,7.8833,7.8902,7.8778,7.9104,7.9114,7.9122,7.9209,7.9228,7.9243,0,0,0,0,0,7.8386,7.8499,7.8481,7.8504,7.8617,7.871,7.8724,7.8718,7.8669,7.8722,7.8737,7.8702,7.8883,7.8825,7.8847,7.8919,7.91,7.9111,7.9121,7.9201,7.9224,7.9243,0,0,0,0,0,0,7.8461,7.8505,7.8485,7.8617,7.866,7.87,7.8767,7.8743,7.88,7.879,7.8778,7.8789,7.8901,7.8921,7.8856,7.9053,7.8983,7.8999,7.9036,7.9058,7.9075,7.9067,7.8784,0,0,0,0,0,7.8493,7.8567,7.8601,7.8714,7.8737,7.8749,7.8789,7.8781,7.8824,7.8842,7.8865,7.8907,7.8973,7.9017,7.9079,7.9212,7.9219,7.9271,7.9289,7.9303,7.9316,7.9385,7.9408,7.9162,7.9162,7.9162,0,0,7.8559,7.8592,7.864,7.8729,7.8762,7.8837,7.8764,7.8847,7.8902,7.8854,7.8958,7.8976,7.9022,7.9143,7.9197,7.9162,7.9385,7.9316,7.9327,7.9333,7.9398,7.9421,7.9442,7.9169,7.9168,7.9167,0,0,7.8717,7.8752,7.8848,7.8883,7.8934,7.8941,7.8964,7.9007,7.9018,7.9122,7.9087,7.915,7.9265,7.9299,7.9331,7.95,7.9469,7.9521,7.961,7.9677,7.9697,7.9714,7.9772,7.9793,7.9534,7.9534,7.9534,0,7.8793,7.8907,7.89,7.8986,7.9025,7.8986,7.9082,7.9115,7.9183,7.921,7.9171,7.9313,7.9341,7.9467,7.9509,7.9537,7.956,7.9515,7.9695,7.9712,7.9728,7.9783,7.9805,7.954,7.9539,7.9539,7.9538,0,7.8995,7.9075,7.9146,7.9214,7.9261,7.9352,7.9356,7.9404,7.9391,7.9401,7.9506,7.9539,7.9606,7.9635,7.9623,7.976,7.9736,7.9697,7.9626,7.9757,7.9809,7.983,7.9548,7.9546,7.9544,7.9543,0,0,7.9204,7.9267,7.9293,7.9323,7.9376,7.9436,7.9522,7.959,7.963,7.9678,7.9748,7.9846,7.9809,7.9845,7.9836,7.9895,8.0024,7.9848,7.9848,7.9878,8.0174,8.0203,8.0228,8.0005,8.0009,8.0012,8.0169,0,7.9365,7.952,7.9515,7.9658,7.9729,7.9693,7.9768,7.9807,7.9818,7.9878,7.9889,7.9958,7.9905,7.9926,7.9983,7.9997,8.0083,7.9985,8.0067,8.0071,8.0056,8.0255,8.0286,8.0433,8.019,8.0193,8.0196,0,7.9573,7.9629,7.978,7.982,7.985,7.9918,7.9978,8.0037,8.0079,8.0082,8.0123,8.0104,8.0188,8.0116,8.0232,8.0165,8.0198,8.021,8.0215,8.0221,8.014,8.0265,8.048,8.0502,8.0228,8.0225,8.0223,0,7.9708,7.9821,7.9925,7.9951,8.0002,8.005,8.0073,8.0111,8.0151,8.0202,8.0227,8.0288,8.0321,8.0367,8.0363,8.0311,8.0479,8.0407,8.0482,8.0482,8.0518,8.0516,8.0741,8.0543,8.0542,8.0542,8.0541,0,7.9887,7.998,7.9986,8.005,8.0151,8.0144,8.0244,8.0261,8.0295,8.0359,8.0331,8.0392,8.0384,8.0444,8.0442,8.0536,8.0551,8.0555,8.0553,8.0557,8.0556,8.0577,8.0566,8.0548,8.0546,8.0545,8.0544,0,8.0055,8.0063,8.0173,8.0212,8.0224,8.0297,8.0328,8.0387,8.0395,8.0477,8.0495,8.0508,8.0577,8.0578,8.0657,8.0655,8.077,8.0757,8.0756,8.0753,8.0827,8.0819,8.1072,8.1104,8.0887,8.0889,8.0891,0,8.0168,8.0239,8.0285,8.0327,8.0353,8.0421,8.0461,8.0456,8.0499,8.0551,8.0603,8.067,8.0723,8.0834,8.0848,8.0908,8.0895,8.0979,8.0903,8.0904,8.0894,8.0889,8.0895,8.0994,8.0996,8.0998,8.1,0,8.0368,8.0368,8.0429,8.0491,8.0541,8.0589,8.0633,8.0668,8.0668,8.0717,8.0788,8.0829,8.0909,8.0975,8.1032,8.1052,8.1025,8.1024,8.1044,8.1048,8.1044,8.1045,8.0795,8.1017,8.1016,8.1014,8.1013,8.1013,8.051,8.057,8.0612,8.068,8.0713,8.0755,8.0812,8.0827,8.0887,8.0953,8.0945,8.1024,8.1061,8.1135,8.116,8.122,8.119,8.122,8.1227,8.1234,8.1241,8.1036,8.123,8.123,8.1229,8.1229,8.1228,0,8.0706,8.0731,8.0794,8.0857,8.091,8.0882,8.0929,8.0974,8.1044,8.1083,8.1135,8.1215,8.1278,8.1297,8.1358,8.1401,8.139,8.1417,8.1413,8.1417,8.1265,8.1241,8.1425,8.1425,8.1425,8.1424,8.1424,8.1424,8.0814,8.0914,8.0919,8.1033,8.1056,8.1134,8.1163,8.12,8.1231,8.1322,8.1375,8.1387,8.1417,8.1479,8.1534,8.1538,8.156,8.1592,8.1591,8.1448,8.1428,8.1409,8.1386,8.1598,8.1598,8.1737,8.1739,8.174]}]]